This is the latest recevied weather packets stored in our database for station/object G8LMY. If no packets are shown the sender has not sent any weather packets the latest 10 day(s).
| Time | Temp. | Humidity | Pressure | Rain* | Wind** | Luminosity | Snow |
|---|---|---|---|---|---|---|---|
| 1777852434 | 12.22° C | 88% | 1010.9 hPa | 0 mm | - | - | - |
| 1777851534 | 12.22° C | 87% | 1010.9 hPa | 0 mm | - | - | - |
| 1777850633 | 12.78° C | 87% | 1010.9 hPa | 0 mm | - | - | - |
| 1777849733 | 12.78° C | 86% | 1010.8 hPa | 0 mm | - | - | - |
| 1777848833 | 12.78° C | 86% | 1010.7 hPa | 0 mm | - | - | - |
| 1777847933 | 13.33° C | 85% | 1010.7 hPa | 0 mm | - | - | - |
| 1777847033 | 13.33° C | 85% | 1010.6 hPa | 0 mm | - | - | - |
| 1777845234 | 13.33° C | 84% | 1010.5 hPa | 0 mm | - | - | - |
| 1777844333 | 13.33° C | 84% | 1010.4 hPa | 0 mm | - | - | - |
| 1777843434 | 13.33° C | 84% | 1010.2 hPa | 0 mm | - | - | - |
| 1777841633 | 13.89° C | 82% | 1010 hPa | 0 mm | - | - | - |
| 1777840733 | 14.44° C | 81% | 1009.8 hPa | 0 mm | - | - | - |
| 1777839833 | 14.44° C | 78% | 1009.5 hPa | 0 mm | - | - | - |
| 1777838933 | 15° C | 78% | 1009.3 hPa | 0 mm | - | - | - |
| 1777838033 | 15.56° C | 75% | 1009.2 hPa | 0 mm | - | - | - |
| 1777837134 | 15.56° C | 74% | 1009.1 hPa | 0 mm | - | - | - |
| 1777836233 | 16.11° C | 73% | 1008.9 hPa | 0 mm | - | - | - |
| 1777835333 | 16.11° C | 71% | 1008.7 hPa | 0 mm | - | - | - |
| 1777834433 | 16.67° C | 71% | 1008.6 hPa | 0 mm | - | - | - |
| 1777833534 | 16.67° C | 71% | 1008.3 hPa | 0 mm | - | - | - |
| 1777832633 | 17.22° C | 70% | 1008.2 hPa | 0 mm | - | - | - |
| 1777831732 | 17.22° C | 68% | 1008.2 hPa | 0 mm | - | - | - |
| 1777830835 | 17.78° C | 67% | 1008.1 hPa | 0 mm | - | - | - |
| 1777829935 | 18.33° C | 64% | 1007.9 hPa | 0 mm | - | - | - |
| 1777829035 | 19.44° C | 63% | 1007.9 hPa | 0 mm | - | - | - |
* Rain latest hour (hover to see other rain measurements)
** Current wind speed in m/s (hover to see current wind gust speed)